OPS 4682 DEB, 38429

Orbit data source: Space-Track

OPS 4682 DEB, 38429 is space debris in LEO originally from a launch on Sat, 03 Apr 1965 UTC launched from the Air Force Western Test Range (AFWTR). Debris objects in space refer to the collection of defunct objects orbiting the Earth. Examples of debris include non-operational satellites, rocket bodies, and fragments generated from explosions, collisions, or faulty payload assembly.

Loading next visibility...
Identifier
38429, 1965-027EJ
Orbit
LEO
Country
Flag of USUS
Related business
Manufacturer
Unknown
Mission
Spacecraft
Bus & Motor
Unknown
Mass
Unknown
Launch date (UTC)
1965-04-03 (61 years ago)
Launch vehicle
Unknown
Launch site
Air Force Western Test Range (AFWTR)
Object type
Payload
Rocket body
Debris
Shape & HBR
Unknown shape, 0.1 m
Radar Cross Section
Medium (>0.1 m² and <1 m²)

Expand to show TLE details & history
Last TLE update: 2 days ago

TLE from 2 days ago
0 OPS 4682 DEB
1 38429U 65027EJ  26148.34705883  .00000188  00000-0  61447-3 0  9997
2 38429  90.2317   0.3176 0043614  86.4896 274.1212 12.97988024586846
Epoch: 2026-05-28T08:19Z
TLE epoch observation values (Epoch: 2026-05-28T08:19:45.882Z)
Latitude
-0.00004°
Longitude
-10.51667°
Altitude
1,270.608 km
Speed
7.221 km/s
True Right ascension
00h 01m 16s
True Declination
0° 00' 00"
Sunlit
Object was in daylight at epoch
Visualization orbit readout
Latitude
Unknown
Longitude
Unknown
Altitude
Unknown
Speed
Unknown
Apparent Right ascension
Unknown
Apparent Declination
Unknown
Sunlit
N/A
Visualization observer readout
Local Sidereal Time
22:16:18
Azimuth
Unknown
Elevation
Unknown
Doppler factor
Unknown
Orbital elements
Apogee altitude
1,300.454 km
Perigee altitude
1,233.766 km
Semi-major axis
7,645.247 km
Eccentricity
0.00436
Inclination
90.2317°
RAAN
0.3176°
Arg. of periapsis
86.4896°
True anomaly
273.62252°
Mean anomaly
274.1212°
Eccentric anomaly
273.87188°
Mean motion
3.2468 °/min
Orbital period
110.88 mins
BSTAR
0.00061447
Loading maneuver chart data...
Computing Atmospheric mass density...
Loading historical data...
Loading historical data...
Loading historical data...
Loading historical data...
Loading historical data...
Loading historical data...
Loading historical data...

Documentation

Showing up to 5 results
|